User: anonymous
Location: Unspecified
(0.0000°N, 0.0000°E)
Time: 00:19:06
(UTC+02:00)
Language:

Cosmos 2219 - Orbit

View from above orbital plane
View from above orbital plane
View from above satellite
View from above satellite

Ground track
Ground track

The orbit data is extracted from the following two-line orbital elements,

1 22219U 92076A   14273.50856240  .00000411  00000-0  24305-3 0  6212
2 22219 071.0594 106.9765 0016450 101.4466 279.4008 14.13499266128226
Epoch (UTC): 30 September 2014 12:12:19
Eccentricity: 0.0016450
inclination: 71.0594°
perigee height: 835 km
apogee height: 859 km
right ascension of ascending node: 106.9765°
argument of perigee: 101.4466°
revolutions per day: 14.13499266
mean anomaly at epoch: 279.4008°
orbit number at epoch: 12822

The dashed part of the orbit path shows where the satellite is in the earth's shadow,  

DLR